Montevideo, MN

12:03 PM CST on December 12, 2017 (GMT -0600)
Montevideo-Chippewa County

Weather History for KMVE - November, 2012

Change the Weather History Date:

Thursday, November 22, 2012

  Actual Average Record
Temperature  
Mean Temperature 39 °F -  
Max Temperature 55 °F 36 °F 61 °F (1974)
Min Temperature 23 °F 19 °F -2 °F (1996)
Degree Days  
Heating Degree Days 26    
Moisture  
Dew Point 31 °F    
Average Humidity 75    
Maximum Humidity 100    
Minimum Humidity 50    
Precipitation  
Precipitation 0.02 in - - ()
Sea Level Pressure  
Sea Level Pressure 29.83 in    
Wind  
Wind Speed 14 mph (NNW)    
Max Wind Speed 30 mph    
Max Gust Speed 40 mph    
Visibility 10 miles    
Events Snow    
Averages and records for this station are not official NWS values.
T = Trace of Precipitation, MM = Missing Value Source: NWS Daily Summary

Daily Weather History Graph

Daily Weather History Graph

Search for Another Location

Airport or City:

Trip Planner

Search our weather history database for the weather conditions in past years. The results will help you decide how hot, cold, wet, or windy it might be!

Date:

Astronomy

Nov. 22, 2012 Rise Set
Actual Time 7:30 AM CST 4:47 PM CST
Civil Twilight 6:57 AM CST 5:19 PM CST
Nautical Twilight 6:21 AM CST 5:56 PM CST
Astronomical Twilight 5:46 AM CST 6:30 PM CST
Moon 1:45 PM CST (11/22) 1:37 AM CST (11/22)
Length of Visible Light 10h 21m
Length of Day
9h 17m
Waxing Gibbous, 71% of the Moon is Illuminated
Nov 22
Waxing Gibbous
Nov 28
Full
Dec 6
Last Quarter
Dec 13
New
Dec 19
First Quarter

Hourly Weather History & Observations

Time (CST) Temp. Windchill Dew Point Humidity Pressure Visibility Wind Dir Wind Speed Gust Speed Precip Events Conditions
12:14 AM 53.6 °F - 41.0 °F 62% 29.59 in 10.0 mi SW 11.5 mph - N/A   Clear
12:34 AM 53.6 °F - 39.2 °F 58% 29.59 in 10.0 mi WSW 11.5 mph - N/A   Clear
12:54 AM 55.4 °F - 39.2 °F 54% 29.59 in 10.0 mi WSW 10.4 mph - N/A   Clear
1:14 AM 53.6 °F - 39.2 °F 58% 29.58 in 10.0 mi WSW 11.5 mph - N/A   Clear
1:34 AM 53.6 °F - 37.4 °F 54% 29.58 in 10.0 mi WSW 9.2 mph - N/A   Clear
1:54 AM 53.6 °F - 37.4 °F 54% 29.58 in 10.0 mi WSW 9.2 mph - N/A   Clear
2:14 AM 53.6 °F - 35.6 °F 51% 29.58 in 10.0 mi West 8.1 mph - N/A   Clear
2:34 AM 53.6 °F - 35.6 °F 51% 29.58 in 10.0 mi WSW 10.4 mph - N/A   Clear
2:54 AM 53.6 °F - 35.6 °F 51% 29.59 in 10.0 mi WSW 8.1 mph - N/A   Clear
3:14 AM 53.6 °F - 35.6 °F 51% 29.59 in 10.0 mi West 4.6 mph - N/A   Clear
3:34 AM 51.8 °F - 33.8 °F 50% 29.59 in 10.0 mi Calm Calm - N/A   Clear
3:54 AM 51.8 °F - 33.8 °F 50% 29.59 in 10.0 mi West 6.9 mph - N/A   Clear
4:15 AM 51.8 °F - 33.8 °F 50% 29.59 in 10.0 mi WNW 6.9 mph - N/A   Clear
4:34 AM 50.0 °F - 33.8 °F 54% 29.60 in 10.0 mi WNW 6.9 mph - N/A   Clear
4:54 AM 50.0 °F - 33.8 °F 54% 29.61 in 10.0 mi NW 5.8 mph - N/A   Clear
5:15 AM 48.2 °F - 32.0 °F 54% 29.61 in 10.0 mi NW 6.9 mph - N/A   Clear
5:34 AM 48.2 °F - 32.0 °F 54% 29.62 in 10.0 mi NW 8.1 mph - N/A   Clear
5:54 AM 48.2 °F - 32.0 °F 54% 29.63 in 10.0 mi NNW 9.2 mph - N/A   Clear
6:14 AM 46.4 °F 42.4 °F 33.8 °F 62% 29.64 in 10.0 mi North 8.1 mph - N/A   Clear
6:34 AM 44.6 °F 40.2 °F 33.8 °F 66% 29.64 in 10.0 mi North 8.1 mph - N/A   Clear
6:54 AM 42.8 °F 39.3 °F 33.8 °F 70% 29.64 in 10.0 mi NNW 5.8 mph - N/A   Clear
7:14 AM 42.8 °F 37.5 °F 35.6 °F 76% 29.66 in 10.0 mi NNW 9.2 mph - N/A   Clear
7:34 AM 42.8 °F 36.6 °F 35.6 °F 76% 29.67 in 10.0 mi North 11.5 mph 16.1 mph N/A   Clear
7:54 AM 42.8 °F 35.8 °F 37.4 °F 81% 29.68 in 10.0 mi North 13.8 mph - N/A   Clear
8:14 AM 42.8 °F 34.8 °F 37.4 °F 81% 29.69 in 10.0 mi North 17.3 mph 23.0 mph N/A   Clear
8:34 AM 41.0 °F 31.9 °F 37.4 °F 87% 29.71 in 10.0 mi North 19.6 mph 26.5 mph N/A   Scattered Clouds
8:54 AM 41.0 °F 32.2 °F 35.6 °F 81% 29.72 in 10.0 mi North 18.4 mph 23.0 mph N/A   Mostly Cloudy
9:14 AM 39.2 °F 29.0 °F 35.6 °F 87% 29.74 in 10.0 mi North 21.9 mph 27.6 mph N/A   Overcast
9:34 AM 39.2 °F 29.8 °F 35.6 °F 87% 29.76 in 10.0 mi North 18.4 mph 29.9 mph N/A   Overcast
9:54 AM 39.2 °F 29.6 °F 35.6 °F 87% 29.77 in 10.0 mi North 19.6 mph 27.6 mph N/A   Overcast
10:14 AM 39.2 °F 29.3 °F 33.8 °F 81% 29.78 in 10.0 mi North 20.7 mph 29.9 mph N/A   Overcast
10:34 AM 37.4 °F 26.6 °F 33.8 °F 87% 29.79 in 10.0 mi North 21.9 mph 31.1 mph N/A   Overcast
10:54 AM 37.4 °F 26.6 °F 33.8 °F 87% 29.79 in 10.0 mi North 21.9 mph 33.4 mph N/A   Overcast
11:14 AM 39.2 °F 29.3 °F 33.8 °F 81% 29.80 in 10.0 mi North 20.7 mph 24.2 mph N/A   Overcast
11:34 AM 39.2 °F 29.6 °F 33.8 °F 81% 29.82 in 10.0 mi North 19.6 mph 28.8 mph N/A   Overcast
11:54 AM 39.2 °F 30.8 °F 33.8 °F 81% 29.83 in 10.0 mi North 15.0 mph 33.4 mph N/A   Overcast
12:14 PM 39.2 °F 29.3 °F 32.0 °F 75% 29.84 in 10.0 mi North 20.7 mph 29.9 mph N/A   Overcast
12:35 PM 37.4 °F 26.4 °F 32.0 °F 81% 29.85 in 10.0 mi North 23.0 mph 32.2 mph N/A   Overcast
12:54 PM 37.4 °F 27.2 °F 32.0 °F 81% 29.86 in 10.0 mi NNW 19.6 mph 31.1 mph N/A   Overcast
1:14 PM 33.8 °F 24.3 °F 33.8 °F 100% 29.87 in 1.0 mi NNW 13.8 mph 27.6 mph N/A Snow Light Snow
1:35 PM 32.0 °F 20.8 °F 32.0 °F 100% 29.87 in 0.5 mi North 17.3 mph 24.2 mph 0.01 in Snow Snow
1:54 PM 33.8 °F 23.9 °F 33.8 °F 100% 29.89 in 1.8 mi NNW 15.0 mph 19.6 mph 0.02 in Snow Light Snow
2:14 PM 33.8 °F 24.8 °F 33.8 °F 100% 29.89 in 5.0 mi NNW 12.7 mph 23.0 mph N/A Snow Light Snow
2:34 PM 33.8 °F 24.3 °F 33.8 °F 100% 29.90 in 10.0 mi NNW 13.8 mph 20.7 mph N/A   Mostly Cloudy
2:54 PM 33.8 °F 23.5 °F 33.8 °F 100% 29.91 in 10.0 mi NNW 16.1 mph 26.5 mph N/A   Mostly Cloudy
3:14 PM 35.6 °F 26.6 °F 33.8 °F 93% 29.92 in 10.0 mi NNW 13.8 mph 25.3 mph N/A   Mostly Cloudy
3:34 PM 35.6 °F 27.1 °F 33.8 °F 93% 29.93 in 10.0 mi NNW 12.7 mph 18.4 mph N/A   Overcast
3:54 PM 35.6 °F 27.1 °F 33.8 °F 93% 29.94 in 10.0 mi NNW 12.7 mph 20.7 mph N/A   Overcast
4:14 PM 37.4 °F 26.9 °F 30.2 °F 75% 29.96 in 10.0 mi NNW 20.7 mph 32.2 mph N/A   Overcast
4:34 PM 35.6 °F 24.8 °F 30.2 °F 81% 29.97 in 10.0 mi North 19.6 mph 26.5 mph N/A   Overcast
4:54 PM 35.6 °F 26.6 °F 30.2 °F 81% 29.98 in 10.0 mi North 13.8 mph 21.9 mph N/A   Overcast
5:14 PM 35.6 °F 24.0 °F 28.4 °F 75% 29.99 in 10.0 mi NNW 23.0 mph 39.1 mph N/A   Overcast
5:34 PM 35.6 °F 24.2 °F 28.4 °F 75% 30.00 in 10.0 mi North 21.9 mph 36.8 mph N/A   Overcast
5:54 PM 33.8 °F 22.2 °F 28.4 °F 81% 30.01 in 10.0 mi NNW 20.7 mph 27.6 mph N/A   Overcast
6:14 PM 33.8 °F 20.5 °F 28.4 °F 81% 30.02 in 10.0 mi North 27.6 mph 35.7 mph N/A   Overcast
6:34 PM 33.8 °F 21.9 °F 28.4 °F 81% 30.03 in 10.0 mi NNW 21.9 mph 40.3 mph N/A   Overcast
6:54 PM 32.0 °F 18.9 °F 24.8 °F 75% 30.04 in 10.0 mi North 24.2 mph 33.4 mph N/A   Overcast
7:14 PM 30.2 °F 16.8 °F 24.8 °F 80% 30.05 in 10.0 mi NNW 23.0 mph 33.4 mph N/A   Overcast
7:34 PM 30.2 °F 16.5 °F 23.0 °F 75% 30.06 in 10.0 mi NNW 24.2 mph 34.5 mph N/A   Overcast
7:54 PM 30.2 °F 16.5 °F 23.0 °F 75% 30.06 in 10.0 mi NNW 24.2 mph 32.2 mph N/A   Overcast
8:14 PM 30.2 °F 16.5 °F 23.0 °F 75% 30.06 in 10.0 mi NNW 24.2 mph 35.7 mph N/A   Overcast
8:34 PM 30.2 °F 15.4 °F 23.0 °F 75% 30.07 in 10.0 mi NNW 28.8 mph 36.8 mph N/A   Overcast
8:54 PM 28.4 °F 15.1 °F 21.2 °F 74% 30.09 in 10.0 mi North 20.7 mph 40.3 mph N/A   Overcast
9:14 PM 28.4 °F 14.1 °F 21.2 °F 74% 30.09 in 10.0 mi NNW 24.2 mph 38.0 mph N/A   Overcast
9:34 PM 26.6 °F 10.6 °F 21.2 °F 80% 30.10 in 10.0 mi North 28.8 mph 36.8 mph N/A   Overcast
9:54 PM 24.8 °F 8.7 °F 19.4 °F 80% 30.12 in 10.0 mi North 26.5 mph 34.5 mph N/A   Overcast
10:14 PM 24.8 °F 9.3 °F 17.6 °F 74% 30.13 in 10.0 mi North 24.2 mph 33.4 mph N/A   Overcast
10:34 PM 24.8 °F 7.9 °F 17.6 °F 74% 30.13 in 10.0 mi North 29.9 mph 38.0 mph N/A   Overcast
10:54 PM 24.8 °F 8.4 °F 17.6 °F 74% 30.14 in 10.0 mi North 27.6 mph 38.0 mph N/A   Overcast
11:14 PM 23.0 °F 6.6 °F 17.6 °F 80% 30.15 in 10.0 mi North 25.3 mph 36.8 mph N/A   Overcast
11:34 PM 23.0 °F 5.7 °F 17.6 °F 80% 30.16 in 10.0 mi North 28.8 mph 38.0 mph N/A   Overcast
11:54 PM 23.0 °F 7.6 °F 19.4 °F 86% 30.17 in 10.0 mi North 21.9 mph 33.4 mph N/A   Overcast